TimeCST,TemperatureF,Dew PointF,Humidity,Sea Level PressureIn,VisibilityMPH,Wind Direction,Wind SpeedMPH,Gust SpeedMPH,PrecipitationIn,Events,Conditions,WindDirDegrees,DateUTC
12:53 AM,27.0,21.0,78,29.69,10.0,West,18.4,28.8,N/A,,Overcast,270,2012-11-23 06:53:00
1:53 AM,25.0,19.9,81,29.70,1.8,West,17.3,28.8,0.00,Snow,Light Snow,260,2012-11-23 07:53:00
2:26 AM,24.8,19.4,80,29.67,1.2,West,19.6,31.1,0.01,Snow,Light Snow,260,2012-11-23 08:26:00
2:35 AM,24.8,19.4,80,29.68,1.5,West,17.3,27.6,0.01,Snow,Light Snow,260,2012-11-23 08:35:00
2:53 AM,24.1,19.9,84,29.71,1.5,West,19.6,27.6,0.01,Snow,Light Snow,260,2012-11-23 08:53:00
3:53 AM,23.0,19.9,88,29.71,1.5,West,21.9,27.6,0.01,Snow,Light Snow,260,2012-11-23 09:53:00
4:17 AM,23.0,19.4,86,29.69,2.5,West,18.4,31.1,0.01,Snow,Light Snow,270,2012-11-23 10:17:00
4:29 AM,24.8,19.4,80,29.69,4.0,West,18.4,27.6,0.01,Snow,Light Snow,270,2012-11-23 10:29:00
4:41 AM,24.8,19.4,80,29.69,1.8,West,17.3,25.3,0.01,Snow,Light Snow,270,2012-11-23 10:41:00
4:53 AM,24.1,19.9,84,29.74,1.2,West,17.3,25.3,0.01,Snow,Light Snow,270,2012-11-23 10:53:00
5:53 AM,24.1,21.0,88,29.76,1.0,West,13.8,21.9,0.01,Snow,Light Snow,280,2012-11-23 11:53:00
6:12 AM,24.8,21.2,86,29.73,2.0,NW,13.8,26.5,0.00,Snow,Light Snow,310,2012-11-23 12:12:00
6:26 AM,24.8,19.4,80,29.74,6.0,WNW,12.7,28.8,0.00,Snow,Light Snow,300,2012-11-23 12:26:00
6:53 AM,25.0,19.0,78,29.80,9.0,WNW,16.1,26.5,0.00,,Overcast,290,2012-11-23 12:53:00
7:24 AM,24.8,19.4,80,29.79,1.8,WNW,15.0,25.3,0.00,Snow,Light Snow,300,2012-11-23 13:24:00
7:53 AM,24.1,19.0,81,29.85,1.2,NW,13.8,26.5,0.00,Snow,Light Snow,320,2012-11-23 13:53:00
8:00 AM,24.8,17.6,74,29.81,3.0,WNW,16.1,35.7,0.00,Snow,Light Snow,300,2012-11-23 14:00:00
8:22 AM,24.8,17.6,74,29.82,2.5,WNW,13.8,21.9,0.00,Snow,Light Snow,290,2012-11-23 14:22:00
8:28 AM,24.8,17.6,74,29.83,3.0,NW,15.0,26.5,0.00,Snow,Light Snow,310,2012-11-23 14:28:00
8:45 AM,24.8,17.6,74,29.84,1.8,NW,15.0,24.2,0.00,Snow,Light Snow,310,2012-11-23 14:45:00
8:53 AM,24.1,18.0,77,29.90,1.8,WNW,17.3,27.6,0.00,Snow,Light Snow,300,2012-11-23 14:53:00
9:00 AM,24.8,17.6,74,29.85,3.0,NW,9.2,27.6,0.00,Snow,Light Snow,310,2012-11-23 15:00:00
9:11 AM,24.8,19.4,80,29.86,1.8,WNW,9.2,23.0,0.00,Snow,Light Snow,290,2012-11-23 15:11:00
9:51 AM,24.8,17.6,74,29.89,3.0,WNW,18.4,27.6,0.00,Snow,Light Snow,300,2012-11-23 15:51:00
9:52 AM,25.0,18.0,75,29.95,3.0,WNW,17.3,27.6,0.00,Snow,Light Snow,300,2012-11-23 15:52:00
10:02 AM,24.8,19.4,80,29.89,1.8,WNW,16.1,24.2,0.00,Snow,Light Snow,300,2012-11-23 16:02:00
10:19 AM,24.8,17.6,74,29.90,3.0,NW,13.8,28.8,0.00,Snow,Light Snow,320,2012-11-23 16:19:00
10:48 AM,24.1,17.1,75,29.98,1.8,NW,16.1,29.9,0.00,Snow,Light Snow,310,2012-11-23 16:48:00
11:24 AM,24.8,15.8,69,29.94,5.0,NW,11.5,27.6,0.00,Snow,Light Snow,310,2012-11-23 17:24:00
11:53 AM,25.0,16.0,69,30.02,5.0,WNW,13.8,26.5,0.00,Snow,Light Snow,300,2012-11-23 17:53:00
12:25 PM,24.8,15.8,69,29.97,9.0,NW,13.8,28.8,0.00,,Overcast,310,2012-11-23 18:25:00
12:32 PM,24.8,15.8,69,29.97,10.0,NW,13.8,28.8,0.00,,Overcast,320,2012-11-23 18:32:00
12:53 PM,24.1,16.0,71,30.06,6.0,NW,12.7,21.9,0.00,Snow,Light Snow,320,2012-11-23 18:53:00
1:17 PM,24.8,17.6,74,30.00,2.0,NW,10.4,18.4,0.00,Snow,Light Snow,320,2012-11-23 19:17:00
1:32 PM,24.8,17.6,74,30.01,3.0,NW,9.2,21.9,0.00,Snow,Light Snow,310,2012-11-23 19:32:00
1:53 PM,24.1,15.1,69,30.09,8.0,NW,17.3,27.6,0.00,Snow,Light Snow,320,2012-11-23 19:53:00
2:18 PM,23.0,15.8,74,30.03,2.5,WNW,13.8,33.4,0.00,Snow,Light Snow,300,2012-11-23 20:18:00
2:26 PM,23.0,17.6,80,30.04,1.2,NW,18.4,25.3,0.00,Snow,Light Snow,320,2012-11-23 20:26:00
2:31 PM,23.0,15.8,74,30.04,3.0,NW,13.8,25.3,0.00,Snow,Light Snow,320,2012-11-23 20:31:00
2:53 PM,23.0,14.0,68,30.13,9.0,NW,18.4,35.7,0.00,,Overcast,320,2012-11-23 20:53:00
3:53 PM,21.9,15.1,75,30.17,5.0,WNW,12.7,24.2,0.00,Snow,Light Snow,300,2012-11-23 21:53:00
4:53 PM,21.0,15.1,78,30.18,5.0,WNW,9.2,18.4,0.00,Snow,Light Snow,300,2012-11-23 22:53:00
5:53 PM,21.0,14.0,74,30.20,8.0,WNW,13.8,25.3,0.00,Snow,Light Snow,300,2012-11-23 23:53:00
6:53 PM,19.9,12.9,74,30.22,9.0,WNW,10.4,23.0,0.00,Snow,Light Snow,300,2012-11-24 00:53:00
7:53 PM,19.9,12.9,74,30.22,9.0,NW,13.8,25.3,0.00,Snow,Light Snow,310,2012-11-24 01:53:00
8:53 PM,19.9,12.0,71,30.22,10.0,WNW,13.8,20.7,0.00,,Overcast,290,2012-11-24 02:53:00
9:42 PM,19.4,12.2,74,30.14,10.0,WNW,9.2,17.3,N/A,,Overcast,290,2012-11-24 03:42:00
9:53 PM,19.9,12.0,71,30.22,10.0,WNW,9.2,-,N/A,,Overcast,300,2012-11-24 03:53:00
10:07 PM,19.4,12.2,74,30.14,10.0,WNW,6.9,-,N/A,,Overcast,290,2012-11-24 04:07:00
10:53 PM,19.0,12.0,74,30.22,10.0,WNW,8.1,-,N/A,,Overcast,300,2012-11-24 04:53:00
11:00 PM,19.4,12.2,74,30.14,10.0,Variable,6.9,-,N/A,,Overcast,0,2012-11-24 05:00:00